Location: Newark
(1.4692°S, 78.8175°W)
Time: 17:09:14
(UTC+00:00)

OTV 5 (USA 277) - Visible Passes

Search period start: 24 March 2019 00:00
Search period end: 03 April 2019 00:00
Orbit: 315 x 320 km, 54.5° (Epoch: 14 March)

Date Brightness Start Highest point End Pass type
(mag) Time Alt. Az. Time Alt. Az. Time Alt. Az.
24 Mar ? 10:56:29 10° SW 10:59:10 62° WNW 11:01:49 10° NNE visible
25 Mar ? 09:39:20 10° SE 09:39:41 10° ESE 09:40:02 10° ESE visible
26 Mar ? 09:55:09 33° ENE 09:55:09 33° ENE 09:56:56 10° NE visible
27 Mar ? 10:10:48 13° N 10:10:48 13° N 10:11:14 10° N visible
